Antimony, UT

10:13 PM MST on March 03, 2015 (GMT -0700)
Bryce Canyon | Change Station
CLOSE
Current Station
Airport
Location: Bryce Canyon,
Elevation: 7585 ft
Nearby Weather Stations
Active Advisory: Avalanche Warning Active Notice: Public Information Statement

Elev 7585 ft 37.71 °N, 112.15 °W | Updated 20 minutes ago

Mostly Cloudy
Mostly Cloudy
13 °F
Feels Like 0 °F
N
10
Wind Variable Wind from WNW

Today
High -- | Low -- °F
--% Chance of Precip.
Yesterday
High -- | Low -- °F
Precip. -- in
6:57 AM 6:23 PM
Waxing Gibbous, 98% visible
Pressure 30.00 in
Visibility 10.0 miles
Clouds Few 2300 ft
Windchill 0 °F
Dew Point 10 °F
Humidity 88%
Rainfall 0.01 in
Snow Depth Not available.
UV 0 out of 12
Pollen 3.40 out of 12
Air Quality Not available.
Flu Activity Not available.
METAR KBCE 040453Z AUTO 30009KT 10SM FEW023 M11/M12 A2989 RMK AO2 SLP157 I1000 T11061122

More Conditions Fewer Conditions

Pressure 30.00 in
Visibility 10.0 miles
Clouds Few 2300 ft
Windchill 0 °F
Dew Point 10 °F
Humidity 88%
Rainfall 0.01 in
Snow Depth Not available.
UV 0 out of 12
Pollen 3.40 out of 12
Air Quality Not available.
Flu Activity Not available.
METAR KBCE 040453Z AUTO 30009KT 10SM FEW023 M11/M12 A2989 RMK AO2 SLP157 I1000 T11061122

More Conditions Fewer Conditions

10-Day Weather Forecast

Almanac

Astronomy

Mar. 03, 2015 Rise Set
Actual Time
Civil Twilight
Nautical Twilight
Astronomical Twilight
Moon
Length of Visible Light
Length of Day
Tomorrow will be .
, % of the Moon is Illuminated

Today's Extremes

State Highs State Lows

Community

WunderPhotos

Upload Photos

1,802,394 photos uploaded!

WunderBlogs® & News

Nearby

Air Quality

  Air Quality AQ Index Pollutant
Not available.

Snow Depth

Station Depth Elevation

Earthquake Activity

City Distance Mag. Time & Date
Minimum magnitude displayed is 2.5.

Coastal Water Temperatures

Place Temperature

Nearby Weather Stations

Avalanche Warning
Statement as of 6:01 AM MST on March 03, 2015

The following message is transmitted at the request of the
Forest service Utah avalanche center.

The avalanche warning for the mountains of southwest Utah will
remain in effect until early Wednesday morning.

Dangerous avalanche conditions exist and human triggered
avalanches are likely.

Backcountry travelers should avoid slopes steeper than 30 degrees
and stay out from underneath steep slopes.

This warning does not include ski areas or highways where
avalanche control is normally done.

For more information visit www.Avalanche.Org
or call 1-888-999-4019.